STARLINK-36812

Last updated on Fri Mar 27 2026 00:02:06 GMT+0000 (Coordinated Universal Time)

1 67968U 26038H 26085.50002314 .00055693 00000+0 17166-2 0 9991 2 67968 97.2851 96.3550 0001393 92.8208 296.8319 15.33410853 5908
UTC large
Height (km)
Speed (km/s)
/
Latitude / Longitude
Inclination (degrees)
Orbital Period (minutes)
Azimuth
Elevation
Range (km)
Doppler Factor

Next 0 passes for location: London (51.5072 / 0.1276)

Sorry there are no passes over London.